User: anonymous   Login
Location: State Camp
(41.2367°N, 77.7828°W)
Time: 00:45:35
(UTC-04:00)
Language:

Cosmos 1674 Rocket - Orbit

View from above orbital plane
View from above orbital plane
View from above satellite
View from above satellite

Ground track
Ground track

The orbit data is extracted from the following two-line orbital elements,

1 15945U 85069B   15241.87779669 +.00000213 +00000-0 +22783-4 0  9996
2 15945 082.5275 028.5214 0018382 292.9873 066.9402 14.83742034602471
Epoch (UTC): 29 August 2015 21:04:01
Eccentricity: 0.0018382
inclination: 82.5275°
perigee height: 604 km
apogee height: 630 km
right ascension of ascending node: 28.5214°
argument of perigee: 292.9873°
revolutions per day: 14.83742034
mean anomaly at epoch: 66.9402°
orbit number at epoch: 60247

The dashed part of the orbit path shows where the satellite is in the earth's shadow,  

DLR